GW6392 Weather Reports


time (UTC)temp
C
wind
direction
speed
KPH
gust
KPH
rain 1hr
cm
rain 24hr
cm
rain mn
cm
humidity
%
barometer
mb
20260502234014 18 344 3.2 12.9 0.00 0.00 0.00 32 1017.2
20260502233515 18 346 3.2 9.7 0.00 0.00 0.00 33 1017.2
20260502233050 18 291 4.8 9.7 0.00 0.00 0.00 34 1017.3
20260502232512 18 276 3.2 9.7 0.00 0.00 0.00 35 1017.2
20260502232009 18 351 4.8 12.9 0.00 0.00 0.00 33 1017.4
20260502231551 18 352 3.2 14.5 0.00 0.00 0.00 33 1017.4
20260502231015 18 17 8.0 17.7 0.00 0.00 0.00 33 1017.4
20260502230513 18 342 8.0 17.7 0.00 0.00 0.00 35 1017.5
20260502230030 18 335 6.4 14.5 0.00 0.00 0.00 36 1017.6
20260502225516 17 27 4.8 17.7 0.00 0.00 0.00 37 1017.7
20260502225016 17 17 11.3 17.7 0.00 0.00 0.00 36 1017.7
20260502224552 18 24 8.0 16.1 0.00 0.00 0.00 35 1017.8
20260502224018 18 107 6.4 17.7 0.00 0.00 0.00 34 1017.9
20260502223513 18 63 6.4 19.3 0.00 0.00 0.00 35 1017.8
20260502223049 18 330 8.0 19.3 0.00 0.00 0.00 35 1017.9
20260502222515 18 5 6.4 20.9 0.00 0.00 0.00 35 1017.9
20260502222015 18 360 14.5 20.9 0.00 0.00 0.00 35 1018.0
20260502221550 19 51 4.8 14.5 0.00 0.00 0.00 33 1018.2
20260502221014 19 197 6.4 14.5 0.00 0.00 0.00 34 1018.2
20260502220515 18 22 8.0 24.1 0.00 0.00 0.00 36 1018.2
20260502220048 18 344 14.5 24.1 0.00 0.00 0.00 35 1018.3
20260502215515 18 36 11.3 22.5 0.00 0.00 0.00 35 1018.3
20260502215010 17 46 8.0 22.5 0.00 0.00 0.00 37 1018.3
20260502214547 17 82 3.2 19.3 0.00 0.00 0.00 36 1018.5
20260502214014 17 33 9.7 19.3 0.00 0.00 0.00 37 1018.6
20260502213511 17 51 12.9 25.7 0.00 0.00 0.00 38 1018.6
20260502213054 17 38 19.3 25.7 0.00 0.00 0.00 36 1018.6
20260502212514 18 33 16.1 20.9 0.00 0.00 0.00 34 1018.7
20260502212017 18 79 3.2 19.3 0.00 0.00 0.00 34 1018.8
20260502211530 18 5 12.9 22.5 0.00 0.00 0.00 34 1018.8
20260502211017 18 330 12.9 22.5 0.00 0.00 0.00 35 1018.8
20260502210516 18 15 4.8 20.9 0.00 0.00 0.00 37 1018.9
20260502210054 18 234 6.4 19.3 0.00 0.00 0.00 34 1018.9
20260502205518 18 38 1.6 14.5 0.00 0.00 0.00 33 1018.9
20260502205017 18 26 8.0 17.7 0.00 0.00 0.00 34 1019.1
20260502204529 18 314 6.4 29.0 0.00 0.00 0.00 34 1019.2
20260502204016 18 352 12.9 29.0 0.00 0.00 0.00 37 1019.2
20260502203516 18 25 11.3 24.1 0.00 0.00 0.00 33 1019.2
20260502203059 18 67 3.2 16.1 0.00 0.00 0.00 36 1019.3
20260502202508 18 346 8.0 19.3 0.00 0.00 0.00 35 1019.4
20260502202014 18 9 8.0 19.3 0.00 0.00 0.00 35 1019.5
20260502201557 18 11 12.9 17.7 0.00 0.00 0.00 37 1019.5
20260502201011 17 300 8.0 20.9 0.00 0.00 0.00 38 1019.5
20260502200516 17 333 16.1 20.9 0.00 0.00 0.00 39 1019.6
20260502200100 17 9 8.0 20.9 0.00 0.00 0.00 37 1019.7
20260502195517 17 347 14.5 20.9 0.00 0.00 0.00 37 1019.7
20260502195012 17 58 4.8 17.7 0.00 0.00 0.00 37 1019.8
20260502194555 17 360 11.3 17.7 0.00 0.00 0.00 38 1019.7
20260502194017 17 17 6.4 16.1 0.00 0.00 0.00 37 1019.7
20260502193510 17 55 6.4 16.1 0.00 0.00 0.00 40 1019.7
20260502193054 16 324 8.0 25.7 0.00 0.00 0.00 41 1019.9
20260502192515 16 346 12.9 25.7 0.00 0.00 0.00 43 1019.9
20260502192015 16 333 12.9 19.3 0.00 0.00 0.00 43 1019.8
20260502191602 16 340 11.3 16.1 0.00 0.00 0.00 42 1019.9
20260502191020 16 348 3.2 17.7 0.00 0.00 0.00 41 1020.0
20260502190515 16 18 11.3 19.3 0.00 0.00 0.00 42 1020.1
20260502190058 16 5 9.7 19.3 0.00 0.00 0.00 42 1020.1
20260502185518 16 352 9.7 17.7 0.00 0.00 0.00 40 1020.1
20260502185015 16 5 6.4 19.3 0.00 0.00 0.00 41 1020.3
20260502184554 16 26 14.5 19.3 0.00 0.00 0.00 41 1020.4
20260502184015 16 26 14.5 20.9 0.00 0.00 0.00 40 1020.2
20260502183509 16 352 8.0 20.9 0.00 0.00 0.00 42 1020.3
20260502183052 16 348 12.9 20.9 0.00 0.00 0.00 42 1020.2
20260502182516 16 76 9.7 19.3 0.00 0.00 0.00 42 1020.3
20260502182016 16 360 11.3 19.3 0.00 0.00 0.00 43 1020.4
20260502181558 15 20 11.3 17.7 0.00 0.00 0.00 42 1020.4
20260502181019 15 360 8.0 20.9 0.00 0.00 0.00 43 1020.4
20260502180518 15 32 11.3 20.9 0.00 0.00 0.00 42 1020.4
20260502170519 16 337 19.3 24.1 0.00 0.00 0.00 43 1020.1
20260502170105 16 352 14.5 20.9 0.00 0.00 0.00 43 1020.4
20260502164017 15 352 12.9 30.6 0.00 0.00 0.00 45 1020.5
20260502163519 15 9 14.5 27.4 0.00 0.00 0.00 43 1020.5
20260502163103 15 9 19.3 27.4 0.00 0.00 0.00 46 1020.5
20260502162519 15 336 16.1 24.1 0.00 0.00 0.00 44 1020.5
20260502162017 15 360 16.1 24.1 0.00 0.00 0.00 46 1020.5
20260502161557 15 340 16.1 22.5 0.00 0.00 0.00 45 1020.5
20260502161017 15 344 16.1 27.4 0.00 0.00 0.00 46 1020.5
20260502160517 15 352 19.3 27.4 0.00 0.00 0.00 45 1020.4
20260502152020 15 352 11.3 16.1 0.00 0.00 0.00 43 1020.1
20260502151559 15 30 8.0 16.1 0.00 0.00 0.00 44 1020.1
20260502151016 15 29 3.2 8.0 0.00 0.00 0.00 44 1019.9
20260502150518 15 66 4.8 8.0 0.00 0.00 0.00 45 1019.9
20260502150113 14 28 4.8 9.7 0.00 0.00 0.00 46 1019.9
20260502140112 10 305 4.8 6.4 0.00 0.00 0.00 62 1020.0
20260502130520 6 320 1.6 4.8 0.00 0.00 0.00 74 1019.6
20260502130111 5 320 1.6 4.8 0.00 0.00 0.00 74 1019.7
20260502123516 5 320 4.8 8.0 0.00 0.00 0.00 72 1019.4
20260502123111 5 320 4.8 8.0 0.00 0.00 0.00 72 1019.4
20260502122520 4 317 4.8 8.0 0.00 0.00 0.00 72 1019.3
20260502122026 4 318 6.4 8.0 0.00 0.00 0.00 73 1019.3
20260502121601 4 313 3.2 6.4 0.00 0.00 0.00 71 1019.4
20260502121009 5 343 3.2 6.4 0.00 0.00 0.00 69 1019.1
20260502120520 5 343 3.2 8.0 0.00 0.00 0.00 69 1019.2
20260502115516 5 344 3.2 6.4 0.00 0.00 0.00 67 1019.3
20260502115203 5 344 0.0 8.0 0.00 0.00 0.00 69 1019.1
20260502114537 5 340 6.4 8.0 0.00 0.00 0.00 67 1019.1
20260502114011 5 360 4.8 6.4 0.00 0.00 0.00 65 1019.1
20260502113512 5 360 4.8 6.4 0.00 0.00 0.00 66 1019.0
20260502113036 5 360 3.2 6.4 0.00 0.00 0.00 67 1018.6
20260502112515 5 360 3.2 8.0 0.00 0.00 0.00 66 1018.6
20260502112007 5 360 4.8 8.0 0.00 0.00 0.00 64 1018.7
20260502111520 5 360 3.2 4.8 0.00 0.00 0.00 64 1018.6
20260502111010 5 360 0.0 6.4 0.00 0.00 0.00 65 1018.5
20260502110511 5 360 3.2 6.4 0.00 0.00 0.00 66 1018.5
20260502110030 5 360 1.6 12.9 0.00 0.00 0.00 66 1018.3
20260502105514 5 334 3.2 12.9 0.00 0.00 0.00 65 1018.3
20260502105015 5 307 4.8 8.0 0.00 0.00 0.00 63 1018.3
20260502104533 6 17 3.2 6.4 0.00 0.00 0.00 64 1018.1
20260502104014 5 9 3.2 6.4 0.00 0.00 0.00 64 1018.1
20260502103512 5 9 4.8 6.4 0.00 0.00 0.00 65 1018.0
20260502103034 4 339 3.2 4.8 0.00 0.00 0.00 67 1018.0
20260502102512 3 339 1.6 3.2 0.00 0.00 0.00 68 1018.0
20260502102014 3 339 1.6 4.8 0.00 0.00 0.00 68 1017.9
20260502101529 3 339 3.2 6.4 0.00 0.00 0.00 67 1018.0
20260502101013 3 339 1.6 4.8 0.00 0.00 0.00 67 1017.9
20260502100511 3 339 3.2 4.8 0.00 0.00 0.00 66 1017.9
20260502091015 5 306 4.8 8.0 0.00 0.00 0.00 61 1017.0
20260502090512 5 320 6.4 8.0 0.00 0.00 0.00 60 1016.7
20260502071522 3 307 3.2 6.4 0.00 0.00 0.00 66 1015.7
20260502071011 4 307 4.8 6.4 0.00 0.00 0.00 65 1015.7
20260502070511 4 307 4.8 6.4 0.00 0.00 0.00 65 1015.7
20260502070042 3 307 4.8 6.4 0.00 0.00 0.00 64 1015.9
20260502065516 3 307 4.8 6.4 0.00 0.00 0.00 66 1015.8
20260502065016 3 307 3.2 4.8 0.00 0.00 0.00 65 1015.9
20260502064538 3 307 3.2 6.4 0.00 0.00 0.00 64 1015.7
20260502064019 3 307 4.8 8.0 0.00 0.00 0.00 64 1015.5
20260502063512 3 307 3.2 8.0 0.00 0.00 0.00 64 1015.6
20260502063055 3 315 4.8 6.4 0.00 0.00 0.00 65 1015.6
20260502062517 4 287 4.8 8.0 0.00 0.00 0.00 64 1015.6
20260502062014 4 277 3.2 8.0 0.00 0.00 0.00 64 1015.6
20260502061542 4 279 4.8 6.4 0.00 0.00 0.00 63 1015.7
20260502061014 4 265 3.2 6.4 0.00 0.00 0.00 64 1015.6
20260502060513 4 266 4.8 6.4 0.00 0.00 0.00 63 1015.7
20260502060046 3 279 3.2 4.8 0.00 0.00 0.00 64 1015.5
20260502055514 4 256 3.2 4.8 0.00 0.00 0.00 62 1015.4
20260502055014 4 256 3.2 6.4 0.00 0.00 0.00 61 1015.3
20260502054536 3 244 3.2 8.0 0.00 0.00 0.00 62 1015.4
20260502054013 3 225 6.4 8.0 0.00 0.00 0.00 62 1015.5
20260502053511 4 313 4.8 6.4 0.00 0.00 0.00 61 1015.3
20260502053053 4 313 3.2 6.4 0.00 0.00 0.00 60 1015.3
20260502052515 4 315 4.8 6.4 0.00 0.00 0.00 59 1015.2
20260502052016 5 308 3.2 6.4 0.00 0.00 0.00 60 1015.3
20260502051540 5 298 4.8 6.4 0.00 0.00 0.00 60 1015.4
20260502051012 5 282 3.2 6.4 0.00 0.00 0.00 60 1015.3
20260502050515 5 276 3.2 6.4 0.00 0.00 0.00 59 1015.3
20260502050039 6 241 3.2 6.4 0.00 0.00 0.00 56 1015.3
20260502045515 6 241 3.2 4.8 0.00 0.00 0.00 56 1015.2
20260502045017 6 241 3.2 4.8 0.00 0.00 0.00 54 1015.3
20260502044539 6 241 3.2 6.4 0.00 0.00 0.00 55 1015.1
20260502044011 7 266 3.2 6.4 0.00 0.00 0.00 56 1015.2
20260502043516 7 38 0.0 0.0 0.00 0.00 0.00 54 1015.5
20260502043047 8 38 0.0 0.0 0.00 0.00 0.00 52 1015.4
20260502042515 8 38 0.0 0.0 0.00 0.00 0.00 52 1015.4
20260502042015 8 38 0.0 0.0 0.00 0.00 0.00 56 1015.3
20260502041549 8 38 0.0 0.0 0.00 0.00 0.00 50 1015.0
20260502041013 8 38 0.0 0.0 0.00 0.00 0.00 52 1015.2
20260502040515 7 38 0.0 0.0 0.00 0.00 0.00 52 1015.3
20260502040045 7 38 0.0 0.0 0.00 0.00 0.00 53 1015.5
20260502035514 7 38 0.0 0.0 0.00 0.00 0.00 54 1014.9
20260502035015 8 38 0.0 0.0 0.00 0.00 0.00 52 1015.1
20260502034550 8 38 0.0 0.0 0.00 0.00 0.00 51 1015.2
20260502034010 8 38 0.0 0.0 0.00 0.00 0.00 52 1015.2
20260502033510 9 38 0.0 0.0 0.00 0.00 0.00 48 1015.0
20260502033042 10 38 0.0 0.0 0.00 0.00 0.00 46 1014.6
20260502032515 11 38 0.0 0.0 0.00 0.00 0.00 43 1014.9
20260502032014 13 38 0.0 0.0 0.00 0.00 0.00 39 1014.8
20260502031547 12 38 0.0 0.0 0.00 0.00 0.00 34 1014.7
20260502031014 13 38 0.0 0.0 0.00 0.00 0.00 34 1014.7
20260502030514 14 38 0.0 0.0 0.00 0.00 0.00 32 1014.7
20260502030053 14 38 0.0 1.6 0.00 0.00 0.00 31 1014.5
20260502025514 14 38 0.0 1.6 0.00 0.00 0.00 32 1014.5
20260502025014 15 38 0.0 3.2 0.00 0.00 0.00 32 1014.4
20260502024531 16 38 0.0 6.4 0.00 0.00 0.00 31 1014.3
20260502024025 16 38 4.8 8.0 0.00 0.00 0.00 27 1014.2
20260502023508 17 38 4.8 8.0 0.00 0.00 0.00 25 1014.1
20260502023050 17 38 6.4 8.0 0.00 0.00 0.00 25 1014.1
20260502022513 17 38 4.8 6.4 0.00 0.00 0.00 25 1014.1
20260502022017 17 38 4.8 6.4 0.00 0.00 0.00 24 1014.2
20260502021550 18 38 4.8 8.0 0.00 0.00 0.00 24 1014.3
20260502021014 18 38 6.4 8.0 0.00 0.00 0.00 24 1014.3
20260502020513 18 38 4.8 8.0 0.00 0.00 0.00 24 1014.3
20260502020053 19 38 6.4 8.0 0.00 0.00 0.00 23 1014.4
20260502015516 19 352 3.2 6.4 0.00 0.00 0.00 22 1014.3
20260502015016 19 352 3.2 6.4 0.00 0.00 0.00 21 1014.4
20260502014553 18 352 4.8 6.4 0.00 0.00 0.00 23 1014.4
20260502014013 18 352 4.8 8.0 0.00 0.00 0.00 27 1014.4
20260502013513 18 352 4.8 8.0 0.00 0.00 0.00 28 1014.6
20260502013033 18 352 4.8 6.4 0.00 0.00 0.00 28 1014.6
20260502012514 19 352 4.8 9.7 0.00 0.00 0.00 27 1014.5
20260502012014 20 360 6.4 9.7 0.00 0.00 0.00 26 1014.7
20260502011532 21 340 4.8 12.9 0.00 0.00 0.00 25 1014.7
20260502011016 21 341 6.4 14.5 0.00 0.00 0.00 22 1014.6
20260502010516 21 351 8.0 16.1 0.00 0.00 0.00 21 1014.7
20260502010055 22 350 8.0 19.3 0.00 0.00 0.00 23 1014.9
20260502005514 22 12 12.9 20.9 0.00 0.00 0.00 23 1014.9
20260502005016 22 336 16.1 20.9 0.00 0.00 0.00 20 1014.9
20260502004544 22 320 8.0 20.9 0.00 0.00 0.00 20 1015.0
20260502004013 22 334 14.5 20.9 0.00 0.00 0.00 20 1015.0
20260502003513 22 351 12.9 20.9 0.00 0.00 0.00 19 1015.2
20260502003045 22 352 14.5 24.1 0.00 0.00 0.00 21 1015.0
20260502002513 22 332 16.1 25.7 0.00 0.00 0.00 19 1015.1
20260502002011 23 319 16.1 25.7 0.00 0.00 0.00 20 1015.0
20260502001552 23 360 16.1 22.5 0.00 0.00 0.00 19 1015.0
20260502001018 23 347 16.1 20.9 0.00 0.00 0.00 20 1015.0
20260502000516 23 340 14.5 22.5 0.00 0.00 0.00 20 1015.0
20260502000059 23 340 12.9 22.5 0.00 0.00 0.00 20 1015.1
20260501235513 23 304 16.1 30.6 0.00 0.00 0.00 20 1015.1
20260501235008 23 336 17.7 30.6 0.00 0.00 0.00 20 1015.2
20260501234553 23 299 16.1 25.7 0.00 0.00 0.00 19 1015.3